Погода в Виесите

Латвия     56°20′41″N   25°33′11″E
темп.,
°C
ветер,
м/с
пор.,
м/с
влажн.,
%
обл.,
%
осадки,
мм/ч
давл.,
гПа
погр.,
м
22 мая, вс
вс2200:00+9всв3798100 2.1 1003458
03:00+9св4997100 2.4 1004511
06:00+8св4129579 0.0 1005464
09:00+10св478099 0.0 1007477
12:00+15всв4647100 0.0 10081608
15:00+16св3440100 0.0 10082233
18:00+16св3443100 0.0 10092092
21:00+11всв2568100 0.0 1010115
23 мая, пн
пн2300:00+7св1175100 0.0 101114
03:00+6св2268100 0.0 101324
06:00+5ссв2371100 0.0 101375
09:00+10св2355100 0.0 1014403
12:00+15св233222 0.0 10141234
15:00+18ссв123170 0.0 10131808
18:00+17св22365 0.0 10121775
21:00+11ю11633 0.0 101311
24 мая, вт
вт2400:00+8з22770 0.0 101412
03:00+7з11760 0.0 101410
06:00+7юз11730 0.0 101510
09:00+14юз12500 0.0 1014382
12:00+18ююз23392 0.0 10141703
15:00+20юз33385 0.0 10131951
18:00+19юз23436 0.0 10131885
21:00+14ююз127181 0.0 101313
25 мая, ср
ср2500:00+11ю227570 0.0 101423
03:00+9ю248422 0.0 101470
06:00+9ю248297 0.0 101490
09:00+12ю2680100 0.1 1015238
12:00+12ююв2885100 0.1 1014302
15:00+15ю3666100 0.1 1013582
18:00+16ююв3566100 0.0 1011598
21:00+14вюв388292 0.0 1009255
26 мая, чт
чт2600:00+13ююв31090100 0.2 1006450
03:00+10зсз51296100 4.4 1007713
06:00+9з4119670 0.4 1007702
09:00+12зюз5118774 0.4 1006880
12:00+15з61068100 0.9 10061437
15:00+15з6107573 2.6 10061608
18:00+14з5108415 1.4 10061268
21:00+11з5119315 2.2 1007782